Regional Weather Roundup
Issued by NWS

Home | Current Version | Previous Version | Text Only | Print | Product List | Glossary Off
Versions: 1 2 3 4 5 6 7 8 9 10 11 12 13 14 15 16 17 18 19 20 21 22 23 24 25 26 27 28 29 30 31 32 33 34 35 36 37 38 39 40 41 42 43 44 45 46 47 48 49 50

996
ASUS45 KBOU 290710
RWRCO

WEATHER ROUNDUP FOR COLORADO
NATIONAL WEATHER SERVICE DENVER/BOULDER CO
100 AM MDT THU SEP 29 2016

NOTE: "FAIR" INDICATES FEW OR NO CLOUDS BELOW 12000 FEET WITH NO
SIGNIFICANT WEATHER AND/OR OBSTRUCTIONS TO VISIBILITY.

COZ001>005-013-030-031-290800-
...NORTHWEST COLORADO...

CITY           SKY/WX    TMP DP  RH WIND       PRES   REMARKS
CRAIG          FAIR      48  37  65 S5        30.32R
HAYDEN         FAIR      54  32  43 SE7       30.34R
MEEKER         FAIR      54  39  57 CALM      30.35R
MOUNT WERNER   NOT AVBL
STEAMBOAT SPGS FAIR      55  32  41 CALM      30.37R
WALDEN           N/A     50  27  40 SE8       30.48S
$$

COZ006>008-011-290800-
...WEST CENTRAL VALLEYS...

CITY           SKY/WX    TMP DP  RH WIND       PRES   REMARKS
GRAND JUNCTION FAIR      70  39  32 N9        30.25R
MONTROSE       FAIR      61  41  47 SE9       30.35R
EAGLE          FAIR      54  30  40 CALM      30.39R
RIFLE          FAIR      56  43  61 N3        30.30R
DELTA          MOCLDY    66  40  37 CALM      30.30R
NUCLA          CLOUDY    63  39  42 SW3       30.38S
$$

COZ017>023-064>068-290800-
...SOUTHWEST COLORADO...

CITY           SKY/WX    TMP DP  RH WIND       PRES   REMARKS
DURANGO        FAIR      60  42  51 SW10      30.42R
CORTEZ         MOCLDY    56  49  77 NW3       30.37R
PAGOSA SPRINGS FAIR      51  32  49 CALM      30.49R
TELLURIDE      FAIR      56  32  40 CALM      30.55S
WOLF CREEK PAS FAIR      41  27  56 MISG      30.76S
$$

COZ009-010-012-014-032>034-037-058>063-290800-
...CENTRAL COLORADO...

CITY           SKY/WX    TMP DP  RH WIND       PRES   REMARKS
ASPEN          FAIR      53  30  41 SW6       30.44R
BUENA VISTA    FAIR      44  27  50 W6        30.52F
COPPER MTN     FAIR      46  21  36 S18G24    30.72S
BERTHOUD PASS  FAIR      37  25  60 SE13G22   30.76F
COTTONWOOD PAS FAIR      54  23  30 E3        30.63F
GUNNISON       FAIR      47  30  51 N12       30.46F
KREMMLING      FAIR      46  27  46 CALM      30.45S
LEADVILLE      FAIR      39  23  52 CALM      30.61S
MONARCH PASS   FAIR      39  27  60 E7        30.84F
SALIDA         FAIR      51  31  45 SW8       30.57S
SUNLIGHT       MOCLDY    50  32  50 S7        30.66S
WILKERSON PASS FAIR      43  27  52 S8G16     30.74S
$$

COZ069>075-290800-
...SAN LUIS VALLEY/SANGRE DE CRISTO MOUNTAINS...

CITY           SKY/WX    TMP DP  RH WIND       PRES   REMARKS
ALAMOSA        FAIR      44  25  47 S6        30.48S
LA VETA PASS   FAIR      50  23  34 MISG      30.63F
SAGUACHE       NOT AVBL
$$

COZ035-036-038>040-290800-
...NORTHERN COLORADO FRONT RANGE...

CITY           SKY/WX    TMP DP  RH WIND       PRES   REMARKS
DENVER INTL AP FAIR      54  31  41 S13       30.36F
DMNS CITY PARK   N/A     56  40  54 SE6       30.37S
AURORA         PTCLDY    55  34  44 S10       30.39S
FRONT RANGE AP NOT AVBL
ERIE MUNI ARPT FAIR      54  38  55 CALM      30.34F
BOULDER MUN AP FAIR      59  36  41 NW3       30.35F
CENTENNIAL     FAIR      56  35  45 S6        30.40S
BROOMFIELD     FAIR      59  37  44 NW13      30.36F
FORT COLLINS   FAIR      57  37  47 N8        30.36F
LONGMONT       FAIR      58  40  49 NW6       30.36F
$$

COZ041-046-047-076>085-087-088-290800-
...PIKES PEAK/PALMER DIVIDE AND SOUTHERN FOOTHILLS...

CITY           SKY/WX    TMP DP  RH WIND       PRES   REMARKS
COLO. SPRINGS  MOCLDY    59  34  39 E3        30.45S
A. F. ACADEMY  FAIR      57  33  40 SW6       30.45S
SCHRIEVER AFB  NOT AVBL
ELLICOTT       NOT AVBL
FALCON         FAIR      52  35  52 SE5       30.48F
FORT CARSON    FAIR      55  33  44 NE7       30.41S
LIMON          FAIR      47  38  71 SE5       30.42S
MONUMENT HILL  FAIR      54  34  47 S18       30.47S
TRINIDAD       FAIR      50  30  46 E3        30.40R
$$

COZ042>045-048>051-090-091-290800-
...NORTHEAST COLORADO...

CITY           SKY/WX    TMP DP  RH WIND       PRES   REMARKS
GREELEY ARPT   FAIR      52  37  58 NE7       30.36F
AKRON          FAIR      51  39  63 SE12      30.38F
BURLINGTON     FAIR      49  40  71 S8        30.39S
WRAY           NOT AVBL
STERLING       FAIR      57  41  54 S6        30.35S
HOLYOKE        FAIR      45  36  70 CALM      30.38S
FORT MORGAN    FAIR      55  39  54 SE7       30.37S
$$

COZ086-089-092>099-290800-
...SOUTHEAST COLORADO...

CITY           SKY/WX    TMP DP  RH WIND       PRES   REMARKS
PUEBLO         FAIR      59  33  37 NE13      30.33S
LA JUNTA       FAIR      59  41  51 E12       30.34S
LAMAR          FAIR      51  41  68 NE6       30.35R
SPRINGFIELD      N/A     49  42  77 CALM      30.37S
$$




USA.gov is the U.S. government's official web portal to all federal, state and local government web resources and services.